Simultaneous Nadir Overpasses (SNOs) Predictions

Prediction of SNOs between GOES-15 and METOP-B Satellite Orbit:

Table of predicted SNOs for the next 14.0 days since TLE Epoch: 5/19/2017
Index Date Time (GOES-15) GOES-15 Lat,Lon METOP-B Lat,Lon Distance(km) Time Diff (sec)
1 05/20/2017 18:16:30 -0.13,-134.95 -0.84,-131.79 360.03 80
2 05/22/2017 06:35:29 0.13,-134.84 -0.20,-136.39 176.29 80
3 05/23/2017 06:17:29 0.13,-134.80 0.87,-131.38 388.44 80
4 05/24/2017 18:36:20 -0.13,-134.79 0.15,-135.95 132.49 80
5 05/25/2017 18:13:01 -0.13,-134.74 -0.98,-130.96 431.36 80
6 05/27/2017 06:32:00 0.13,-134.61 -0.05,-135.55 106.80 80
7 05/28/2017 06:13:59 0.14,-134.56 1.02,-130.55 456.89 80
8 05/29/2017 18:32:51 -0.14,-134.54 0.00,-135.11 65.05 80
9 05/30/2017 18:09:31 -0.14,-134.49 -1.13,-130.12 498.11 80
10 06/01/2017 06:28:30 0.14,-134.34 0.05,-134.70 40.91 80




NCC Satellite Simultaneous Nadir Overpasses (SNOs) Prediction Service
